| DS18B20 | SHTC3 | ||||||
|---|---|---|---|---|---|---|---|
| ID | Date d/m/Y & Time | data1 สูง | data2 ต่ำ | data3 นอก | temp pcb | hum pcb | Time |
| 7496 | 31/03/2026 12:12:29 | 32.1  | 30.9  | 32.2  | 31.3  | 68.3  | 12:12 |
| 7495 | 31/03/2026 12:07:47 | 32.1  | 30.9  | 32.2  | 31.4  | 68.3  | 12:07 |
| 7494 | 31/03/2026 12:03:05 | 32.1  | 30.9  | 32.2  | 31.4  | 68.4  | 12:03 |
| 7493 | 31/03/2026 11:58:23 | 32.0  | 30.8  | 32.4  | 31.4  | 68.4  | 11:58 |
| 7492 | 31/03/2026 11:53:41 | 32.0  | 30.8  | 32.4  | 31.3  | 68.4  | 11:53 |
| 7491 | 31/03/2026 11:48:59 | 31.9  | 30.8  | 32.4  | 31.1  | 68.4  | 11:48 |
| 7490 | 31/03/2026 11:44:16 | 31.9  | 30.7  | 32.5  | 31.2  | 68.3  | 11:44 |
| 7489 | 31/03/2026 11:39:35 | 31.9  | 30.7  | 32.8  | 31.1  | 68.3  | 11:39 |
| 7488 | 31/03/2026 11:34:54 | 31.8  | 30.6  | 32.5  | 31.2  | 68.3  | 11:34 |
| 7487 | 31/03/2026 11:30:12 | 31.8  | 30.6  | 32.8  | 31.1  | 68.3  | 11:30 |
| 7486 | 31/03/2026 11:25:31 | 31.7  | 30.5  | 32.8  | 31.0  | 68.3  | 11:25 |
| 7485 | 31/03/2026 11:20:49 | 31.6  | 30.4  | 32.4  | 30.9  | 68.4  | 11:20 |
| 7484 | 31/03/2026 11:16:08 | 31.5  | 30.4  | 32.4  | 30.8  | 68.3  | 11:16 |
| 7483 | 31/03/2026 11:11:25 | 31.4  | 30.4  | 32.4  | 30.7  | 68.5  | 11:11 |
| 7482 | 31/03/2026 11:06:43 | 31.4  | 30.3  | 31.5  | 30.8  | 68.5  | 11:06 |
| 7481 | 31/03/2026 11:02:02 | 31.3  | 30.2  | 32.0  | 30.7  | 68.6  | 11:02 |
| 7480 | 31/03/2026 10:57:20 | 31.2  | 30.2  | 31.8  | 30.6  | 68.6  | 10:57 |
| 7479 | 31/03/2026 10:52:39 | 31.1  | 30.1  | 31.9  | 30.6  | 68.7  | 10:52 |
| 7478 | 31/03/2026 10:47:57 | 31.1  | 30.1  | 32.1  | 30.4  | 68.8  | 10:47 |
| 7477 | 31/03/2026 10:43:15 | 31.0  | 30.0  | 31.5  | 30.3  | 68.8  | 10:43 |
| 7476 | 31/03/2026 10:38:34 | 30.9  | 29.9  | 31.8  | 30.4  | 68.9  | 10:38 |
| 7475 | 31/03/2026 10:33:52 | 30.9  | 29.9  | 31.5  | 30.5  | 68.9  | 10:33 |
| 7474 | 31/03/2026 10:29:11 | 30.9  | 29.8  | 31.4  | 30.4  | 69.0  | 10:29 |
| 7473 | 31/03/2026 10:24:30 | 30.8  | 29.8  | 31.8  | 30.2  | 69.0  | 10:24 |